Location: Eitze
(52.9840°N, 9.6894°E)
Time: 17:02:45
(UTC+00:00)

ISS - Visible Passes

Search period start: 22 January 2026 00:00
Search period end: 01 February 2026 00:00
Orbit: 413 x 423 km, 51.6° (Epoch: 22 January)

Date Brightness Start Highest point End Pass type
(mag) Time Alt. Az. Time Alt. Az. Time Alt. Az.
22 Jan -3.6 16:53:20 10° W 16:56:40 70° S 16:59:23 15° E visible
22 Jan -2.2 18:30:03 10° W 18:32:19 35° WSW 18:32:19 35° WSW visible
23 Jan -3.4 17:42:04 10° W 17:45:22 59° SSW 17:46:23 38° SE visible
23 Jan -0.3 19:19:02 10° W 19:19:19 12° W 19:19:19 12° W visible
24 Jan -3.5 16:54:04 10° W 16:57:23 67° S 17:00:28 12° ESE visible
24 Jan -2.0 18:30:53 10° W 18:33:25 29° SW 18:33:25 29° SW visible
25 Jan -2.7 17:42:46 10° W 17:45:56 40° SSW 17:47:34 23° SE visible
26 Jan -3.0 16:54:41 10° W 16:57:56 50° SSW 17:01:12 10° ESE visible
26 Jan -1.3 18:31:55 10° WSW 18:34:12 17° SW 18:34:44 17° SSW visible
27 Jan -1.6 17:43:32 10° W 17:46:16 24° SSW 17:49:01 10° SSE visible
28 Jan -2.0 16:55:16 10° W 16:58:16 31° SSW 17:01:17 10° SE visible
29 Jan -0.7 17:44:49 10° WSW 17:46:20 13° SW 17:47:50 10° SSW visible
30 Jan -0.9 16:56:01 10° W 16:58:21 18° SW 17:00:40 10° S visible
